Bogota, Colombia

12:54 AM COT on October 01, 2016 (GMT -0500)
Eldorado International

Weather History for SKBO - January, 2013

Change the Weather History Date:

Sunday, January 13, 2013

  Actual Average Record
Temperature  
Mean Temperature 58 °F -  
Max Temperature 67 °F 65 °F 73 °F (1998)
Min Temperature 49 °F 44 °F 37 °F (1997)
Degree Days  
Heating Degree Days 7    
Growing Degree Days 8 (Base 50)    
Moisture  
Dew Point 52 °F    
Average Humidity 79    
Maximum Humidity 100    
Minimum Humidity 48    
Precipitation  
Precipitation 0.00 in - - ()
Sea Level Pressure  
Sea Level Pressure 30.25 in    
Wind  
Wind Speed 6 mph ()    
Max Wind Speed 17 mph    
Max Gust Speed -    
Visibility 4.7 miles    
Events Fog , Rain , Thunderstorm    
Averages and records for this station are not official NWS values.
T = Trace of Precipitation, MM = Missing Value Source: Averaged Metar Reports

Daily Weather History Graph

Daily Weather History Graph

Search for Another Location

Airport or City:

Trip Planner

Search our weather history database for the weather conditions in past years. The results will help you decide how hot, cold, wet, or windy it might be!

Date:

Astronomy

Jan. 13, 2013 Rise Set
Actual Time 6:09 AM COT 6:01 PM COT
Civil Twilight 5:46 AM COT 6:24 PM COT
Nautical Twilight 5:21 AM COT 6:49 PM COT
Astronomical Twilight 4:55 AM COT 7:15 PM COT
Moon 7:39 AM COT (1/13) 7:57 PM COT (1/13)
Length of Visible Light 12h 37m
Length of Day
11h 52m
Waxing Crescent, 5% of the Moon is Illuminated
Jan 13
Waxing Crescent
Jan 18
First Quarter
Jan 26
Full
Feb 3
Last Quarter
Feb 10
New

Hourly Weather History & Observations

Time (COT) Temp. Dew Point Humidity Pressure Visibility Wind Dir Wind Speed Gust Speed Precip Events Conditions
1:00 AM 50 °F 49 °F 95%  in 3 mi NW 4.5 mph - -   Mist
1:00 AM 50.0 °F 50.0 °F 100% 30.27 in 3.1 mi NW 4.6 mph - N/A   Scattered Clouds
2:00 AM 51.8 °F 50.0 °F 94% 30.25 in 5.0 mi SW 4.6 mph - N/A Fog Fog
3:00 AM 51.8 °F 51.8 °F 100% 30.24 in 5.0 mi Calm Calm - N/A Fog Fog
4:00 AM 52 °F 51 °F 95%  in 5 mi West 2.2 mph - - Fog Shallow Fog
5:00 AM 51.8 °F 50.0 °F 94% 30.26 in 5.0 mi Variable 2.3 mph - N/A Fog Fog
5:30 AM 51.8 °F 50.0 °F 94% 30.25 in 5.0 mi Calm Calm - N/A Fog Fog
6:00 AM 50.0 °F 48.2 °F 94% 30.26 in 5.0 mi SSW 4.6 mph - N/A Fog Patches of Fog
7:00 AM 52 °F 51 °F 93%  in 2 mi NW 4.5 mph - -   Mist
7:00 AM 51.8 °F 50.0 °F 94% 30.27 in 2.5 mi NW 4.6 mph - N/A   Scattered Clouds
8:00 AM 55.4 °F 53.6 °F 94% 30.29 in 4.3 mi Variable 2.3 mph - N/A Fog Fog
9:00 AM 60.8 °F 53.6 °F 77% 30.29 in 5.0 mi Variable 2.3 mph - N/A   Scattered Clouds
10:00 AM 62 °F 53 °F 65%  in 7 mi West 8.9 mph - -   Haze
10:00 AM 62.6 °F 53.6 °F 72% 30.28 in 6.2 mi West 8.1 mph - N/A   Mostly Cloudy
12:00 PM 66.2 °F 51.8 °F 60% 30.25 in 6.2 mi West 16.1 mph - N/A   Scattered Clouds
1:00 PM 67 °F 52 °F 48%  in 6 mi WSW 15.7 mph - -   Haze
1:00 PM 68.0 °F 51.8 °F 56% 30.23 in 5.6 mi WSW 16.1 mph - N/A   Mostly Cloudy
2:00 PM 68.0 °F 51.8 °F 56% 30.22 in 5.0 mi West 17.3 mph - N/A   Mostly Cloudy
2:02 PM 68.0 °F 50.0 °F 52% 30.22 in 5.0 mi West 17.3 mph - N/A Thunderstorm Thunderstorm
3:00 PM 66.2 °F 50.0 °F 56% 30.20 in 5.6 mi WSW 16.1 mph - N/A   Mostly Cloudy
4:00 PM 66 °F 52 °F 50%  in 5 mi West 15.7 mph - -   Haze
4:00 PM 66.2 °F 51.8 °F 60% 30.19 in 5.0 mi West 16.1 mph - N/A   Mostly Cloudy
5:00 PM 64.4 °F 53.6 °F 68% 30.21 in 5.0 mi SW 13.8 mph - N/A   Mostly Cloudy
5:06 PM 64.4 °F 53.6 °F 68% - 5.0 mi West 16.1 mph - N/A Rain , Thunderstorm Thunderstorms and Rain
6:00 PM 60.8 °F 53.6 °F 77% 30.24 in 5.0 mi WNW 11.5 mph - N/A   Mostly Cloudy
7:00 PM 59 °F 53 °F 75%  in 3 mi West 8.9 mph - -   Overcast
7:00 PM 59.0 °F 53.6 °F 82% 30.26 in 6.2 mi West 8.1 mph - N/A   Scattered Clouds
8:00 PM 55.4 °F 53.6 °F 94% 30.27 in 6.2 mi WNW 3.5 mph - N/A   Scattered Clouds
9:00 PM 55.4 °F 53.6 °F 94% 30.29 in 3.7 mi North 3.5 mph - N/A   Haze
10:00 PM 55 °F 52 °F 87%  in 3 mi WNW 4.5 mph - -   Haze
10:00 PM 55.4 °F 51.8 °F 88% 30.30 in 3.1 mi WNW 3.5 mph - N/A   Haze
11:00 PM 55.4 °F 51.8 °F 88% 30.29 in 3.1 mi NW 4.6 mph - N/A   Haze